www.pogodaiklimat.ru

Погода и климат >> Архив погоды >> Россия >> Калмыкия >> Юста


ПОГОДА в Юсте

  • Прогноз погоды в Юсте
  • Монитор погоды в Юсте

АРХИВ ПОГОДЫ в Юсте

Время (UTC), дата Ветер
(напр.,м/с)
 
Видим.   Явления Облачность Т
(С)
Тd
(С)
f
(%)
Тe
(С)
Тes
(С)
Комфортность P
(гПа)
Po
(гПа)
Тmin
(С)
Tmax
(С)
R
(мм)
R24
(мм)
S
(см)
06 9.06 В 2 20 км 8/0
[Cs]
+31.2 +3.0 17 +29 +39 жарко 1020.8 1020.5
09 9.06 СВ 4 20 км 6/6 1000 м
[Cu hum Ci fib]
+32.8 +4.0 16 +30 +35 жарко 1020.4 1020.0
12 9.06 СВ 3
{11}
20 км 8/6 1000 м
[Cu med, cong Ci fib]
+33.5 +4.9 17 +31 +35 жарко 1019.5 1019.2
15 9.06 СВ 6
{10}
20 км 8/0
[Cs]
+31.9 +5.4 19 +30 +30 жарко 1019.2 1018.8 +33.8
18 9.06 СВ 3 10 км 4/0
[Ac trans Ci fib]
+24.3 +1.4 22 +23 +23 комфорт 1020.2 1019.8
21 9.06 СВ 3 10 км ясно +20.5 +1.9 29 +21 +21 комфорт 1020.5 1020.1
00 10.06 СВ 3 10 км ясно +17.0 +2.4 37 +17 +17 1020.5 1020.1
03 10.06 В 4 20 км 3/0
[Ci fib]
+21.6 +2.5 28 +21 +23 комфорт 1021.0 1020.7 +14.6
06 10.06 В 4 20 км ясно +30.8 -0.9 13 +28 +36 жарко 1020.5 1020.2
09 10.06 В 4
{11}
20 км ясно +32.6 -1.5 11 +29 +42 жарко 1019.5 1019.2
12 10.06 В 5 20 км ясно +34.4 +0.5 12 +31 +37 жарко 1018.2 1017.9
15 10.06 В 4
{11}
20 км ясно +33.6 +1.1 13 +30 +32 жарко 1017.4 1017.1 +34.4
18 10.06 ЮВ 3 10 км ясно +26.8 +5.6 26 +26 +26 жарко 1018.4 1018.0
21 10.06 В 2 10 км ясно +21.5 +5.0 34 +22 +22 комфорт 1018.6 1018.3
00 11.06 В 3 10 км ясно +17.7 +5.5 45 +18 +18 1018.0 1017.7
03 11.06 В 3 20 км ясно +22.7 +10.8 47 +25 +26 комфорт 1018.2 1017.8 +16.1
06 11.06 В 4 20 км ясно +31.3 +4.2 18 +29 +37 жарко 1017.6 1017.3
09 11.06 В 5-12
{13}
20 км ясно +34.6 +1.1 12 +31 +41 жарко 1016.3 1016.0
12 11.06 ЮВ 4
{13}
20 км 3/3 1000 м
[Cu hum Ci fib]
+36.1 +4.2 14 +33 +39 жарко 1014.5 1014.1
15 11.06 ЮВ 6-11
{12}
20 км 3/0
[Ac trans Ci fib]
+34.2 +1.3 12 +31 +31 жарко 1014.4 1014.0 +36.4
18 11.06 ЮВ 2
{11}
10 км 3/0
[Ci fib]
+27.7 +2.7 20 +26 +26 жарко 1015.5 1015.1
21 11.06 В 2 10 км 3/0
[Ci fib]
+20.4 +5.5 38 +22 +22 комфорт 1015.1 1014.7
00 12.06 СВ 2 10 км 3/0
[Ci fib]
+17.8 +8.2 53 +18 +18 1014.5 1014.1
03 12.06 В 2 20 км 5/0
[Ci fib]
+24.3 +11.1 43 +26 +27 жарко 1014.6 1014.2 +17.3
06 12.06 В 6-10
{10}
20 км 4/0
[Cs]
+32.8 +2.4 15 +30 +34 жарко 1014.2 1013.9
09 12.06 В 5
{12}
20 км 8/0
[Cc]
+36.2 0.0 10 +32 +41 жарко 1013.2 1012.9
12 12.06 В 4
{10}
20 км 3/0
[Cs]
+37.2 0.0 10 +34 +41 очень
жарко
1011.7 1011.4
15 12.06 ЮВ 4
{10}
20 км 3/0
[Cs]
+36.0 +0.1 10 +32 +33 жарко 1011.1 1010.8 +37.6
18 12.06 Ю 3 10 км ясно +27.8 -0.5 16 +25 +25 комфорт 1012.1 1011.7
21 12.06 ЮЗ 2 10 км ясно +23.2 +2.2 25 +23 +23 комфорт 1011.7 1011.3
00 13.06 С 3 10 км ясно +20.4 +1.9 29 +21 +21 комфорт 1011.3 1011.0
03 13.06 С 3 20 км 3/0
[Cs]
+28.1 +2.6 19 +26 +28 жарко 1010.9 1010.5 +19.0
06 13.06 С 3 20 км 3/0
[Cs]
+35.2 +0.7 11 +32 +41 жарко 1010.7 1010.4
09 13.06 СВ 2 20 км 6/6 1000 м
[Cu hum]
+37.9 -0.7 9 +34 +42 очень
жарко
1010.2 1009.9
12 13.06 В 5
{10}
20 км 8/8 1000 м
[Cu med, cong]
+38.9 -1.3 8 +35 +36 очень
жарко
1009.3 1009.0
15 13.06 С 10-17
{20}
4000 м пыльная буря {метель} 8/5 1000 м
[Cu med, cong Ac trans Cs]
+34.0 +9.0 22 +33 +33 жарко 1010.0 1009.7 +38.9
18 13.06 СВ 9-15
{18}
4000 м пыльная буря {метель} 8/0
[Ac trans Cs]
+27.4 +9.8 33 +28 +28 жарко 1014.2 1013.9
21 13.06 СВ 10-15
{16}
4000 м пыльная буря {метель} 5/0
[Ac trans]
+22.8 +7.6 38 +24 +24 комфорт 1015.7 1015.3
00 14.06 СВ 7-10
{14}
10 км пыльный позёмок 3/0
[Ac trans]
+18.6 -0.9 27 +18 +18 1016.9 1016.6
03 14.06 СВ 6-10
{12}
20 км 4/0
[Ac trans]
+17.8 +0.4 31 +17 +18 1018.9 1018.5 +17.0
06 14.06 СВ 6-10
{12}
20 км 3/0
[Ac trans]
+21.5 -0.3 23 +21 +25 комфорт 1019.7 1019.3
09 14.06 В 5-10
{11}
20 км 3/0
[Ac trans]
+25.7 -3.3 15 +24 +32 комфорт 1018.9 1018.6
12 14.06 С 4
{11}
20 км 3/0
[Ac trans]
+27.4 -5.2 11 +24 +31 комфорт 1018.0 1017.6
15 14.06 В 4 20 км ясно +27.4 -5.8 11 +24 +26 комфорт 1017.1 1016.8 +28.0
18 14.06 штиль 0 10 км ясно +21.2 -5.1 17 +20 +20 1017.8 1017.4
21 14.06 штиль 0 10 км ясно +16.4 -5.3 22 +16 +16 1016.7 1016.4
00 15.06 штиль 0 10 км ясно +15.4 -4.4 25 +15 +15 1016.5 1016.1
03 15.06 З 1 20 км ясно +18.4 -3.6 22 +20 +22 1016.3 1015.9 +12.3
06 15.06 ЮЗ 3 20 км ясно +27.4 -5.3 11 +24 +35 комфорт 1015.4 1015.0
09 15.06 ЮЗ 1 20 км ясно +30.9 -3.2 11 +27 +49 жарко 1014.0 1013.7
12 15.06 З 4 20 км ясно +33.4 -2.2 10 +30 +37 жарко 1012.0 1011.7
15 15.06 З 4 20 км ясно +33.4 -3.2 9 +29 +31 жарко 1010.5 1010.2 +33.8
18 15.06 СЗ 1 10 км 3/0
[Ci fib]
+25.5 -3.0 15 +23 +23 комфорт 1010.9 1010.5
21 15.06 Ю 4 10 км 3/0
[Ci fib]
+23.2 -1.5 19 +22 +22 комфорт 1010.6 1010.2
00 16.06 Ю 5 10 км 3/0
[Ci fib]
+21.4 +7.8 42 +22 +22 комфорт 1009.7 1009.4

 

Местоположение метеостанции Юста (Калмыкия, Россия): широта 47.13 долгота 46.32 высота над уровнем моря 3 м.

В архиве по умолчанию представлена погода в Юсте за последнюю неделю. Архивные данные за месяц целиком и за предыдущие месяцы, начиная с января 2011 года, Вы можете получить, выбрав интересующий диапазон дат из раскрывающегося списка и нажав кнопку "Ввод!".


*Определитесь, кто Вы:
робот инопланетянин человек

Внимание! Время в таблицах - всемирное. Для получения местного времени необходимо прибавить поправку, которая равна 3 ч.

Смотрите также архив погоды в соседних городах и на ближайших метеорологических станциях:

Погода в Харабали (Астраханская область, Россия) (76 км)
Погода в Утте (Калмыкия, Россия) (88 км)
Погода в Черный Яр (Астраханская область, Россия) (106 км)
Погода в Досанге (Астраханская область, Россия) (124 км)
Погода в Верхнем Баскунчаке (Астраханская область, Россия) (125 км)
Погода в Яшкуле (Калмыкия, Россия) (129 км)
Погода в Кетченерах (Калмыкия, Россия) (134 км)
Погода в Малых Дербетах (Калмыкия, Россия) (151 км)
Погода в Астрахани (Астраханская область, Россия) (158 км)
Погода в Лимане (Астраханская область, Россия) (163 км)

Пояснения к столбцам:

Ветер - указаны скорость ветра в м/с - средняя за 10 мин, порывы в срок и между сроками (в фигурных скобках) и направление, откуда дует ветер: С - северный, СВ - северо-восточный, В - восточный, ЮВ - юго-восточный, Ю - южный, ЮЗ - юго-западный, З - западный, СЗ - северо-западный.
Видимость - горизонтальная дальность видимости в метрах или километрах. При видимости от 1 до 10 км при отсутствии осадков обычно наблюдается дымка, при ухудшении видимости до 1 км и менее - туман. В сухую погоду видимость может ухудшаться дымом, пылью или мглою.
Явления - указаны атмосферные явления, наблюдавшиеся в срок или в последний час перед сроком; фигурными скобками обозначены явления, наблюдавшиеся между сроками (за 1-3 часа до срока); квадратными скобками обозначены град или гололедные отложения с указанием их диаметра в мм.
Облачность - указаны через наклонную черту общая и нижняя облачность в баллах и высота нижней границы облаков в метрах; квадратными скобками обозначены формы облаков: Ci - перистые, Cs - перисто-слоистые, Cc - перисто-кучевые, Ac - высококучевые, As - высокослоистые, Sc - слоисто-кучевые, Ns - слоисто-дождевые, Cu - кучевые, Cb - кучево-дождевые. Подробнее классификацию облаков см. в Атласе облаков (PDF).
T - Температура воздуха - температура, измеренная на высоте 2 м над землей.
Td - Температура точки росы - температура, при понижении до которой содержащийся в воздухе водяной пар достигнет насыщения.
f - Относительная влажность воздуха - влажноcть воздуха, измеренная на высоте 2 м над землей.
Te - Эффективная температура - температура, которую ощущает одетый по сезону человек в тени. Характеристика душности погоды. При расчете учитывается влияние влажности воздуха и скорости ветра на теплоощущения человека.
Tes - Эффективная температура на солнце - температура, которую ощущает человек, с поправкой на солнечный нагрев. Характеристика знойности погоды. Зависит от высоты солнца над горизонтом, облачности и скорости ветра. Ночью, в пасмурную погоду, а также при ветре 12 м/с и более поправка равна нулю.
P - Атмосферное давление - приведенное к уровню моря атмосферное давление.
Po - Атмосферное давление - измеренное на уровне метеостанции атмосферное давление.
Tmin - Минимальная температура - минимум температуры воздуха на высоте 2 м над землей.
Tmax - Максимальная температура - максимум температуры воздуха на высоте 2 м над землей.
R - Количество осадков - Количество выпавших осадков за период времени, мм. При наведении курсора мыши на число - период времени, за который выпало указанное количество осадков.
R24 - Количество осадков - Количество выпавших осадков за 24 часа, мм.
S - Снежный покров - Высота снежного покрова, см. При наведении курсора мыши на число - состояние снежного покрова и степень покрытия местности в баллах.